IRIDIUM 33 DEB, 36012

Orbit data source: Space-Track

IRIDIUM 33 DEB, 36012 is space debris in LEO originally from a launch on Sun, 14 Sep 1997 UTC launched from the Tyuratam Missile And Space Complex (TTMTR). The debris from Iridium 33, an American commercial communications satellite, has been tracked extensively since its accidental collision with the defunct Russian satellite Cosmos 2251 in 2009. This event, occurring at high speed in low Earth orbit (LEO), generated thousands of pieces of space debris, significantly increasing the risk of further collisions. The Iridium 33 debris cloud has impacted space traffic management and orbital debris mitigation strategies, making it a subject of ongoing study in space situational awareness.

Loading next visibility...
Identifier
36012, 1997-051UT
Orbit
LEO
Country
Flag of USUS
Related business
Manufacturer
Unknown
Mission
Spacecraft
Bus & Motor
Unknown
Mass
Unknown
Launch date (UTC)
1997-09-14 (28 years ago)
Launch vehicle
Unknown
Launch site
Tyuratam Missile And Space Complex (TTMTR)
Object type
Payload
Rocket body
Debris
Shape & HBR
Unknown shape, 0.1 m
Radar Cross Section
Small (<0.1 m²)

Expand to show TLE details & history
Last TLE update: 1 day ago

TLE from 1 day ago
0 IRIDIUM 33 DEB
1 36012U 97051UT  25348.63123516  .00012304  00000-0  46999-2 0  9992
2 36012  86.4403 306.7711 0211555 257.0975 100.6509 14.19089098655116
Epoch: 2025-12-14T15:08Z
TLE epoch observation values (Epoch: 2025-12-14T15:08:58.717Z)
Latitude
-0.00001°
Longitude
-4.01494°
Altitude
862.746 km
Speed
7.405 km/s
True Right ascension
20h 27m 05s
True Declination
0° 00' 00"
Sunlit
Object was in daylight at epoch
Visualization orbit readout
Latitude
Unknown
Longitude
Unknown
Altitude
Unknown
Speed
Unknown
Apparent Right ascension
Unknown
Apparent Declination
Unknown
Sunlit
N/A
Visualization observer readout
Local Sidereal Time
23:41:41
Azimuth
Unknown
Elevation
Unknown
Doppler factor
Unknown
Orbital elements
Apogee altitude
977.813 km
Perigee altitude
673.023 km
Semi-major axis
7,203.555 km
Eccentricity
0.02116
Inclination
86.4403°
RAAN
306.7711°
Arg. of periapsis
257.0975°
True anomaly
103.02111°
Mean anomaly
100.6509°
Eccentric anomaly
101.83724°
Mean motion
3.54996 °/min
Orbital period
101.41 mins
BSTAR
0.0046999
Loading maneuver chart data...
Computing Atmospheric mass density...

Documentation

Showing up to 5 results
|